Regional Weather Roundup
Issued by NWS

Home | Current Version | Previous Version | Graphics & Text | Print | Product List | Glossary On
Versions: 1 2 3 4 5 6 7 8 9 10 11 12 13 14 15 16 17 18 19 20 21 22 23 24 25 26 27 28 29 30 31 32 33 34 35 36 37 38 39 40 41 42 43 44 45 46 47 48 49 50
000
ASUS45 KTFX 190010
RWRMT
MONTANA REGIONAL WEATHER ROUNDUP
NATIONAL WEATHER SERVICE GREAT FALLS MT
500 PM MST SAT NOV 18 2017

NOTE: "FAIR" INDICATES FEW OR NO CLOUDS BELOW 12000 FEET WITH NO
SIGNIFICANT WEATHER AND/OR OBSTRUCTIONS TO VISIBILITY.

MTZ001>007-043-190100-
WEST OF THE DIVIDE

CITY           SKY/WX    TMP DP  RH WIND       PRES   REMARKS
KALISPELL      CLOUDY    38  26  62 S5        30.18F
MISSOULA       FAIR      39  22  50 N8        30.21F
BUTTE          FAIR      30  14  51 W3        30.19F
MULLAN PASS    MOCLDY    23  20  88 MISG      30.13F
ANACONDA         N/A     32  14  47 S8        30.18F WCI  25
DEER LODGE       N/A     32  19  59 S5        30.21F
EUREKA           N/A     39  25  56 MISG      30.18S
HAMILTON         N/A     39  18  41 S3        30.22F
LIBBY            N/A     37  28  70 CALM      30.19R
PLAINS           N/A     39  24  55 CALM      30.21F
RONAN            N/A     38  26  62 SW1       30.23F
$$

MTZ008-052>055-190100-
SOUTHWEST MONTANA

CITY           SKY/WX    TMP DP  RH WIND       PRES   REMARKS
BOZEMAN        FAIR      31  21  66 SW5       30.20F
DILLON         FAIR      34  12  40 CALM      30.21F
W YELLOWSTONE  CLOUDY    23  16  74 SW8G21    30.33R WCI  14
ENNIS          CLOUDY    32  14  47 S18       30.28S WCI  20
TWIN BRIDGES     N/A     32  12  43 CALM      30.18F
$$

MTZ009-010-012-014-046-048-049-054-190100-
EAST SLOPES AND CENTRAL MONTANA

CITY           SKY/WX    TMP DP  RH WIND       PRES   REMARKS
CUT BANK       FAIR      34  21  59 SW23G33   29.99F WCI  22
GREAT FALLS    FAIR      38  18  44 SW18      30.06F WCI  28
MALMSTROM AFB  MOCLDY    39  19  44 SW22      30.07F WCI  28
HELENA         FAIR      37  22  54 SE5       30.17F
BOWMANS CRNR   MOCLDY    34  18  51 SW23G29   30.07S WCI  22
CHOTEAU          N/A     37  19  48 SW18G29   30.03F WCI  27
FAIRFIELD      MOCLDY    37  19  47 SW17G23   30.04F WCI  27
POWER          FAIR      36  20  51 SW18      30.03F WCI  26
RAYNESFORD     MOCLDY    40  17  39 W15       30.06F
ULM            MOCLDY    39  17  40 W20G26    30.07F WCI  30
$$

MTZ011-013-016-021-045-047-050-051-190100-
NORTH CENTRAL MONTANA

CITY           SKY/WX    TMP DP  RH WIND       PRES   REMARKS
HAVRE          FAIR      38  25  59 W18       30.02F WCI  28
LEWISTOWN      FAIR      34  20  56 SW12      30.07S WCI  25
N BAR RANCH    FAIR      32  16  51 SW5       30.10R
CHINOOK          N/A     39  25  56 W7        30.03F
DENTON         MOCLDY    37  21  53 W14       30.03F WCI  28
GEYSER         MOCLDY    38  18  45 W25G35    30.02F WCI  26
GRASS RANGE    MOCLDY    38  19  45 W15       30.04S WCI  29
STANFORD       FAIR      37  17  45 W18       30.05F WCI  26
WINIFRED       FAIR      37  21  52 W8        30.05F WCI  31
$$

MTZ017>020-022>027-061-062-190100-
NORTHEAST MONTANA

CITY           SKY/WX    TMP DP  RH WIND       PRES   REMARKS
GLASGOW        FAIR      32  21  64 N5        30.06S
GLENDIVE       FAIR      34  21  59 W3        30.10R
JORDAN           N/A     31  21  66 CALM      30.07F
SIDNEY         FAIR      31  21  66 W10       30.06F WCI  22
WOLF POINT     FAIR      31  20  63 W8        30.06F WCI  23
MALTA          CLEAR     28  23  80 W3        30.05F
PLENTYWOOD       N/A     28  18  64 CALM      30.01S
POPLAR           N/A     30  19  64 W6        30.06F WCI  24
SCOBEY           N/A     27  12  53 W3        29.99S
$$

MTZ028>42-056>058-190100-
SOUTHCENTRAL AND SOUTHEAST MONTANA

CITY           SKY/WX    TMP DP  RH WIND       PRES   REMARKS
BAKER          FAIR      34  23  64 NW10      30.10R WCI  26
BILLINGS       MOCLDY    41  18  39 W14       30.12F
LIVINGSTON     FAIR      38  17  42 SW32G45   30.14S WCI  25
MILES CITY     MOCLDY    40  24  53 NW3       30.11S
BIG TIMBER     CLEAR     37  12  35 W31       30.13F WCI  25
FORSYTH          N/A     41  19  42 CALM      30.12R
HARLOWTON      MOCLDY    33  20  57 W25G32    30.08F WCI  20
LAUREL           N/A     37  18  44 SW8       30.14S WCI  31
ROUNDUP          N/A     38  17  42 SW13      30.00F WCI  30
$$

REGIONAL REPORTS...DAKOTAS

CITY           SKY/WX    TMP DP  RH WIND       PRES   REMARKS
WILLISTON      FAIR      25  16  68 S3        30.04F
MINOT          FAIR      18  11  74 SW5       30.03S
DICKINSON      FAIR      25  18  74 W8        30.05S WCI  16
BEACH          FAIR      30  23  74 SW7       30.11S WCI  23
CROSBY         FAIR      23  14  68 SW10      30.00F WCI  12
TIOGA          FAIR      23  14  68 SW8       30.02S WCI  14
WATFORD CITY   FAIR      25  18  74 SW8       30.04F WCI  16
BISMARCK       FAIR      30  18  60 W5        30.10F
GRAND FORKS    FAIR      15   8  73 W9        30.05S WCI   3
FARGO          FAIR      19   9  65 NW10      30.08S WCI   7
BUFFALO SD       N/A     36  21  54 W12       30.05S WCI  28
RAPID CITY     FAIR      33  19  56 N9        30.13S WCI  25
$$

REGIONAL REPORTS...WYOMING/IDAHO/WASHINGTON

CITY           SKY/WX    TMP DP  RH WIND       PRES   REMARKS
GILLETTE       FAIR      26  17  68 W5        30.14S
SHERIDAN       FAIR      26  20  77 SW5       30.14R
BUFFALO WY     FAIR      25  10  53 W5        30.14R
CODY           FAIR      37  13  37 W14G20    30.16S WCI  28
YELLOWSTONE LA   N/A     17  13  84 VRB6      30.32R WCI   9
IDAHO FALLS    MOCLDY    35  21  56 S3        30.37S
SALMON         FAIR      34  17  50 SW3       30.28S
BOISE          FAIR      43  22  43 SE8       30.31S
SPOKANE        MOCLDY    41  30  65 CALM      30.19F
$$

REGIONAL REPORTS...ALBERTA

CITY           SKY/WX    TMP DP  RH WIND       PRES   REMARKS
EDMONTON       CLOUDY    28  19  69 SW5       29.80F
CALGARY        MOCLDY    41  16  36 W13G23    29.85S
LETHBRIDGE     MOCLDY    36  23  60 SW17      29.94R WCI  25
MEDICINE HAT   MOCLDY    32  25  74 SW15      29.93F WCI  22
$$

REGIONAL REPORTS...SASKATCHEWAN

CITY           SKY/WX    TMP DP  RH WIND       PRES   REMARKS
SWIFT CURRENT  CLEAR     28  21  74 SW17      29.90F WCI  16
REGINA         PTCLDY     9   3  78 S7        29.97S WCI  -3
SASKATOON      CLOUDY    12   5  73 SW6       29.94S WCI   3
$$



USA.gov is the U.S. government's official web portal to all federal, state and local government web resources and services.